RH
20 24 29 42 60 76 82 81 79 77 75 71 68 66 64 63 63 64 67 70 73 75 76 75 75 75 76 78 78 78 78 77 76 75 74 73 71 69 67 64 62 60 57 54 52 50 48 46 44 42 41 40 38 38 37 36 36 35 34 33 32 31 30 29 29 28 28 28 27 27 27 26 26 26 26 27 27 27 27 26 26 26 26 25 24 24
24 34 48 66 76 81 81 80 78 76 73 70 68 68 68 69 71 74 76 78 78 78 78 78 78 79 79 79 78 78 77 76 74 73 72 69 66 64 60 57 54 51 49 46 44 42 40 38 36 35 34 33 32 32 31 31 30 29 28 27 26 26 25 24 24 24 24 24 24 24 24 24 24 24 24 24 24 24 24 24 24 24 24 24 23 23
38 55 73 79 81 81 80 78 75 72 69 69 71 73 76 77 78 79 80 79 79 78 78 80 80 80 80 79 78 77 76 74 72 69 66 63 60 56 52 50 46 44 40 38 35 33 31 30 28 27 26 26 25 24 24 24 23 22 22 21 20 20 20 19 19 19 19 20 20 20 20 20 20 21 21 21 21 22 22 22 22 22 21 21 20 20
61 75 82 82 81 79 78 76 72 68 67 71 74 76 78 80 80 80 80 79 78 78 79 80 81 80 79 78 76 74 72 69 66 62 58 54 51 47 44 41 38 34 32 29 26 24 22 21 20 19 18 18 18 18 18 17 16 16 16 15 15 14 14 14 14 14 14 15 15 16 16 16 16 17 17 18 18 18 18 18 18 18 18 17 17 16
78 82 81 80 79 77 74 71 68 66 66 72 74 76 78 80 81 80 79 78 78 78 79 80 80 78 77 74 72 68 64 60 56 52 48 44 40 37 33 30 27 24 21 19 18 16 15 14 13 13 12 12 12 12 12 11 11 11 10 10 10 10 10 10 10 10 10 10 11 11 12 12 13 13 14 14 14 14 14 14 14 14 14 13 13 13
81 80 79 78 76 74 70 66 62 62 65 69 72 74 76 78 80 79 78 78 78 78 78 77 76 73 70 66 61 57 52 48 43 39 35 31 28 24 21 18 16 14 12 11 10 10 9 8 8 8 8 8 8 8 8 8 7 7 7 7 7 7 7 7 7 7 8 8 8 8 9 9 10 10 10 10 10 10 11 11 11 10 10 10 10 10
80 78 76 74 71 66 62 59 58 59 62 66 69 72 73 76 77 78 78 77 76 75 73 70 66 61 56 50 45 40 36 32 28 24 21 18 16 14 12 10 9 8 7 6 6 6 5 5 5 5 5 5 5 5 5 5 5 5 5 5 5 5 5 5 6 6 6 6 6 7 7 7 8 8 8 8 8 8 8 8 8 8 8 8 8 8
78 76 72 66 60 55 53 55 56 58 60 65 69 73 76 76 77 77 76 74 71 66 62 56 50 44 38 32 28 24 20 17 15 12 10 9 8 7 6 5 5 4 4 4 4 4 4 4 4 4 4 4 4 4 4 4 4 4 4 4 4 4 4 5 5 5 5 5 6 6 6 6 6 6 7 7 7 7 7 7 8 8 8 8 8 8
74 69 62 52 48 48 52 56 59 62 65 70 75 78 79 78 76 74 70 65 59 52 45 38 32 26 22 18 15 12 10 8 7 6 5 4 4 4 4 3 3 3 3 3 3 3 3 4 4 4 4 4 4 4 4 4 4 4 4 4 4 4 4 4 4 5 5 5 5 5 5 6 6 6 6 6 6 6 6 7 7 7 7 7 7 7
64 56 48 46 50 57 65 69 71 73 75 78 78 78 77 74 70 64 58 50 43 36 30 24 18 15 12 10 8 6 5 4 4 4 3 3 3 3 3 3 3 3 3 3 3 3 3 4 4 4 4 4 4 4 4 4 4 4 4 4 4 4 4 4 4 4 4 4 4 5 5 5 5 5 5 6 6 6 6 7 7 7 7 7 7 7
52 49 52 62 70 75 78 80 80 79 78 77 75 71 67 61 54 47 40 33 28 22 18 14 11 8 6 6 5 4 4 4 3 3 3 3 3 3 3 3 3 3 3 3 3 4 4 4 4 4 4 4 4 4 4 4 4 4 4 4 4 4 4 4 4 4 4 4 4 4 4 4 4 5 5 6 6 6 7 7 7 7 7 7 7 7
53 60 71 78 82 82 82 81 79 76 73 68 62 56 49 43 36 30 23 19 15 12 10 8 6 5 4 4 4 4 3 3 3 3 3 3 3 3 3 3 3 3 3 4 4 4 4 4 4 4 4 4 4 4 4 4 4 4 4 4 4 4 4 4 4 4 4 4 4 4 4 4 5 6 6 7 7 7 8 8 7 7 7 8 8 9
68 76 82 82 82 80 78 74 70 64 58 50 43 36 31 26 21 16 12 10 8 6 5 4 4 4 4 4 3 3 3 3 3 3 3 3 3 3 3 4 4 4 4 4 4 4 4 4 4 4 4 4 4 4 4 4 4 4 3 3 3 3 3 3 3 3 3 4 4 5 5 6 6 7 8 8 8 8 7 7 8 8 8 10 12 14
79 82 82 80 76 71 66 58 51 44 37 32 26 21 17 14 11 8 6 5 5 4 4 4 4 3 3 3 3 3 3 3 3 3 4 4 4 4 4 4 4 4 4 4 4 4 4 4 4 4 4 4 4 4 3 3 3 3 3 3 3 3 3 3 3 4 4 5 6 6 7 8 8 8 8 8 7 7 8 8 10 11 13 15 18 20
80 77 73 67 60 53 46 38 32 26 21 18 14 11 8 7 6 5 4 4 4 4 3 3 3 3 3 4 4 4 4 4 4 4 4 4 4 4 4 4 4 4 4 4 4 4 4 4 4 4 3 3 3 3 3 3 3 3 3 3 3 4 4 5 5 6 7 7 8 8 8 8 8 8 7 7 8 9 10 12 15 17 19 22 23 24
69 62 54 46 40 33 28 22 18 14 11 9 8 6 5 4 4 4 4 4 4 3 3 3 3 3 4 4 4 4 4 4 4 4 4 4 4 4 4 4 4 4 4 4 4 4 4 3 3 3 3 3 3 3 3 3 3 4 4 4 5 6 6 7 8 8 8 8 8 8 8 7 7 8 8 10 11 14 16 19 21 23 24 25 25 25
49 41 34 28 23 19 16 12 10 8 7 6 5 5 4 4 4 4 4 4 4 3 4 4 4 4 4 4 4 4 4 4 4 4 4 4 4 4 4 4 4 4 4 4 4 3 3 3 3 3 3 3 4 4 4 5 5 6 6 7 8 8 8 8 8 8 8 8 7 7 8 8 9 10 12 15 18 20 23 24 26 26 26 26 25 25
30 24 20 16 13 11 9 8 6 6 5 5 4 4 4 4 4 4 4 4 4 4 4 4 4 4 4 4 4 4 4 4 4 4 4 4 4 4 4 4 4 4 4 3 3 3 4 4 4 4 5 6 6 7 7 8 8 8 8 8 8 8 8 8 8 8 8 8 8 9 10 12 14 16 19 22 24 26 26 27 26 26 26 26 26 26
17 14 11 10 8 7 6 6 5 5 4 4 4 4 4 4 4 4 4 4 4 4 4 4 4 4 4 4 4 4 4 4 4 4 4 4 4 4 4 4 4 4 4 4 4 5 6 6 7 8 8 9 9 9 9 9 8 8 8 8 8 8 8 8 8 8 9 10 11 13 16 18 21 23 26 26 27 27 27 26 26 26 26 27 28 29
10 9 8 7 6 6 5 5 5 4 4 4 4 4 4 4 4 4 4 4 4 4 4 4 4 4 4 4 4 4 4 4 4 4 4 4 4 4 4 4 4 4 5 6 7 8 9 10 10 11 11 11 10 10 10 10 9 9 8 8 8 9 9 10 10 12 13 15 18 20 23 25 27 28 28 28 27 26 26 27 27 28 30 31 32 33
8 8 7 6 6 5 5 5 5 4 4 4 4 4 4 4 4 4 4 4 4 4 4 4 4 4 5 5 5 5 5 5 5 5 5 5 5 5 5 6 6 7 8 9 10 11 12 12 12 12 12 12 11 10 10 10 10 10 10 10 10 10 12 13 15 17 19 22 24 26 28 29 29 28 27 27 27 27 28 29 31 32 34 35 36 36
7 6 6 6 6 5 5 5 5 4 4 4 4 4 4 4 4 4 4 4 4 5 5 5 5 5 5 5 5 5 5 5 5 5 5 5 6 6 7 8 8 9 10 12 13 13 14 14 14 13 13 12 12 11 11 10 10 10 11 12 12 14 16 18 20 22 25 27 28 29 29 29 28 28 28 28 29 30 32 33 34 36 37 38 38 39
6 6 6 6 6 5 5 5 5 5 4 4 4 4 4 4 4 4 5 5 5 5 5 5 5 5 5 5 5 5 5 5 6 6 6 6 7 8 9 10 10 11 12 14 14 15 15 15 14 14 13 12 12 12 11 12 12 12 13 14 16 18 20 22 24 26 28 29 29 29 29 29 30 30 31 32 34 34 35 36 37 38 38 38 39 39
6 6 6 6 6 5 5 5 5 5 4 4 4 4 4 4 5 5 5 5 5 6 6 6 6 5 5 5 6 6 6 6 6 6 7 8 8 9 10 11 12 12 14 15 16 16 16 15 15 14 13 12 12 12 12 12 13 14 16 17 19 21 24 25 26 28 28 28 28 29 30 31 33 34 36 37 38 38 38 38 38 38 38 38 38 38
6 6 6 6 6 6 5 5 5 4 4 4 4 4 5 5 5 5 6 6 6 6 6 6 6 6 6 6 6 6 6 6 7 7 8 8 10 10 11 12 12 13 14 16 16 16 16 15 14 14 13 12 12 12 12 13 14 16 18 20 22 24 26 27 27 27 27 28 29 30 32 35 37 38 40 40 40 40 40 39 38 37 36 36 36 36
7 6 6 6 6 5 5 5 5 4 4 4 5 5 5 6 6 6 6 6 6 6 6 6 6 6 6 6 6 7 7 7 8 8 8 9 10 11 12 12 13 13 14 15 16 16 16 15 15 14 13 13 12 13 13 14 16 18 20 23 25 27 28 28 27 27 27 29 31 33 36 38 39 40 41 41 41 40 40 38 37 36 35 35 35 35
7 7 6 6 6 5 5 5 5 5 5 5 5 6 6 6 6 6 7 7 6 6 6 7 7 7 7 7 8 8 8 8 8 9 10 10 10 11 12 12 12 13 14 15 16 16 16 16 15 14 14 13 13 13 14 15 17 19 22 25 27 28 29 28 28 28 29 31 34 36 38 40 40 41 41 41 40 40 39 38 37 36 36 36 36 36
7 6 6 6 5 5 5 5 5 5 5 6 6 6 7 7 7 7 7 7 7 7 7 7 8 8 8 8 8 8 8 9 9 10 10 10 11 12 12 12 12 13 13 14 15 16 17 16 16 15 15 14 14 14 15 16 18 21 24 27 29 30 30 29 29 30 32 34 37 39 40 41 42 42 41 40 40 39 38 38 37 37 36 37 37 38
6 6 6 5 5 5 5 5 5 6 6 6 7 7 8 8 8 7 7 7 7 7 8 8 8 8 9 9 10 10 10 10 10 10 10 11 12 12 13 13 13 13 13 14 15 16 18 18 18 16 16 16 15 15 16 18 20 23 26 30 31 32 32 31 32 33 35 37 39 41 42 42 42 42 42 40 40 39 38 38 37 37 37 38 38 39
6 6 5 5 5 5 5 5 6 6 7 8 8 8 8 8 8 8 8 8 8 8 8 9 9 10 10 10 10 10 10 10 10 11 11 12 13 13 14 14 14 14 14 14 15 17 18 19 19 18 18 17 16 16 17 19 22 24 28 31 33 34 34 34 34 36 38 40 41 42 43 43 43 43 42 42 41 40 40 39 38 38 38 39 40 40
6 6 5 5 5 5 6 6 7 7 8 8 8 8 8 8 8 8 8 8 8 9 9 10 10 10 10 11 11 12 12 11 11 12 12 13 14 14 14 15 15 15 15 15 16 16 18 20 20 20 19 18 18 18 18 20 23 26 30 32 35 36 36 36 37 38 40 42 42 43 44 44 44 44 44 43 43 42 42 41 40 40 40 40 41 42
6 5 5 5 6 6 6 7 8 8 9 9 9 9 9 9 9 9 9 10 10 10 10 10 11 11 12 12 12 13 13 12 12 12 13 13 14 14 15 16 16 16 16 16 16 17 18 20 21 20 20 19 19 19 20 21 24 27 30 34 36 38 38 39 40 40 42 43 44 44 44 44 45 45 46 46 45 45 44 44 43 43 42 43 43 44
6 5 6 6 6 7 8 8 9 9 10 10 10 10 10 10 10 10 10 10 10 11 11 11 12 12 13 14 14 14 14 14 14 14 14 14 15 15 16 16 16 17 17 18 18 18 18 20 20 20 20 20 20 20 20 22 24 27 30 34 36 38 40 40 42 42 43 44 44 45 45 46 47 48 48 48 48 48 47 46 46 46 46 46 46 46
6 6 6 6 7 8 8 9 10 10 10 10 10 10 10 10 10 11 11 11 12 12 12 13 14 14 15 16 16 16 16 16 16 16 16 16 16 17 17 18 18 18 18 19 19 19 20 20 20 20 20 20 19 20 20 22 24 26 30 33 36 38 40 41 42 43 44 44 46 46 48 49 50 50 51 51 51 51 50 50 50 50 50 49 49 49
6 6 6 7 8 9 10 10 10 10 11 11 11 11 11 11 12 12 12 13 14 14 15 16 16 17 18 18 18 18 18 18 18 18 18 18 18 18 18 19 19 20 20 20 20 21 21 21 21 21 20 20 19 19 20 21 23 25 28 31 34 36 38 40 41 42 44 45 47 49 51 52 54 54 55 55 55 55 56 56 56 55 54 52 52 52
6 6 7 8 9 10 11 11 11 11 11 12 12 12 12 13 13 14 14 15 16 17 18 18 19 19 20 20 20 20 20 20 20 20 20 19 19 20 20 20 21 21 21 22 22 22 22 22 22 21 20 20 19 19 19 20 22 24 26 29 32 34 37 38 40 42 44 47 50 53 55 56 57 58 58 58 59 60 60 60 60 59 58 56 55 54
6 7 8 9 10 11 12 12 12 12 12 12 13 13 14 15 15 16 17 18 19 20 20 21 21 22 22 22 22 22 22 22 21 21 20 20 20 21 21 22 22 22 22 22 22 22 22 22 22 22 21 20 19 19 18 19 20 22 24 28 30 34 36 38 40 42 46 50 54 56 58 59 60 60 60 61 62 63 64 64 63 62 60 58 56 54
7 8 9 10 11 12 12 13 13 13 13 14 14 15 16 17 18 18 20 20 21 22 22 23 23 23 23 23 23 23 23 23 22 22 22 22 22 22 22 23 24 24 24 23 23 22 22 22 22 22 21 20 19 19 18 18 19 21 23 26 30 33 36 39 42 45 50 54 57 59 60 60 61 62 62 64 65 66 66 65 64 62 60 58 56 54
8 9 10 11 12 13 13 14 14 14 15 16 16 17 18 19 20 21 22 22 23 23 24 24 24 25 25 25 25 25 24 24 24 24 23 23 23 23 24 24 24 24 24 24 23 23 23 23 22 22 21 20 20 19 18 18 18 20 22 25 29 34 38 42 46 50 54 57 60 61 61 61 61 62 64 65 66 66 66 64 63 61 58 56 54 53
8 10 11 12 13 14 14 14 15 16 16 17 18 19 20 21 22 22 23 24 24 24 25 26 26 26 27 27 27 27 26 26 26 26 25 24 24 24 24 25 26 26 25 24 24 24 23 23 23 22 22 21 20 20 19 18 18 18 20 24 28 34 40 46 50 54 58 60 61 61 60 60 62 63 65 66 66 65 64 63 62 60 57 55 54 53
10 11 12 13 14 14 15 16 16 18 18 19 20 21 22 22 23 24 24 25 26 26 27 28 28 29 29 29 29 28 28 28 28 27 26 26 26 26 26 26 26 26 26 25 24 24 24 24 24 24 23 22 21 20 19 18 18 18 20 23 28 34 42 49 55 58 61 62 62 61 60 61 62 64 65 66 65 64 63 62 60 58 55 54 53 53
11 12 13 14 15 16 16 17 18 19 20 21 22 22 23 24 24 24 26 26 27 28 29 30 31 32 32 32 31 31 30 30 30 29 28 28 28 28 28 28 28 27 26 26 25 25 25 25 25 25 24 23 22 21 20 19 18 18 19 22 27 33 42 50 57 61 63 63 62 61 61 62 63 64 65 65 64 63 61 60 58 56 54 53 53 53
12 13 14 15 16 17 18 18 20 20 21 22 23 23 24 24 25 26 27 29 30 31 32 33 34 35 35 35 34 34 33 32 32 31 30 30 29 29 29 29 29 28 28 27 26 26 26 26 26 26 26 24 24 23 22 20 19 18 19 21 26 32 40 49 56 61 64 64 63 62 61 62 63 64 65 64 64 62 60 58 56 55 54 54 54 54
13 14 15 16 17 18 19 20 21 22 22 23 24 24 25 26 27 28 30 32 33 34 36 37 38 38 39 38 38 37 36 35 34 33 32 31 30 30 30 30 30 29 28 28 27 26 26 27 27 28 27 26 26 24 23 22 20 19 19 21 24 30 38 46 54 60 63 64 63 62 62 62 63 64 64 64 63 62 60 58 57 56 56 56 57 57
14 15 16 17 18 19 20 22 22 23 24 24 25 26 27 28 30 32 33 35 36 38 39 40 41 42 42 42 42 41 40 38 37 35 34 32 31 31 30 30 30 30 29 28 27 27 27 28 28 28 28 28 27 26 25 24 22 20 20 20 23 28 36 44 52 58 62 64 64 63 62 63 63 64 64 64 64 62 61 60 60 60 60 60 60 60
14 16 17 18 20 21 22 23 24 24 25 26 27 28 30 31 33 35 37 38 40 41 42 43 44 45 46 46 45 44 44 42 40 38 36 34 32 31 31 30 30 30 30 29 28 28 28 28 29 30 30 30 29 28 27 26 24 22 20 20 22 26 32 41 50 56 62 64 65 65 64 64 63 64 64 64 64 64 64 63 63 63 63 63 62 62
16 17 18 20 21 22 23 24 24 26 26 28 29 31 32 34 36 38 40 42 43 44 45 46 47 48 48 48 48 48 47 45 43 41 38 36 34 32 32 31 31 30 30 30 29 28 28 29 30 30 31 31 31 30 30 28 26 24 22 20 21 24 29 38 46 55 62 65 66 66 65 64 64 63 63 64 65 66 66 66 66 66 65 65 64 64
16 18 19 21 22 23 24 25 26 27 28 30 32 34 36 38 40 42 43 44 45 46 47 48 49 50 50 50 50 50 50 48 46 44 41 38 36 34 32 32 31 31 30 30 29 29 28 30 31 32 33 33 32 32 32 31 29 26 24 22 21 22 26 34 42 52 60 65 67 67 66 65 64 64 64 64 66 67 68 67 66 66 65 65 65 64
18 19 20 22 23 24 26 27 28 29 31 33 35 37 39 40 42 44 45 46 47 48 49 50 51 52 52 52 52 52 52 51 49 47 44 41 38 36 34 32 32 31 30 30 30 29 29 30 32 34 35 35 34 34 34 34 32 30 26 24 22 22 24 30 38 47 56 63 67 68 67 66 64 63 63 65 66 68 68 68 67 66 64 64 64 64
19 20 22 23 24 26 27 28 30 32 34 35 38 40 42 43 44 46 46 48 49 50 51 52 53 54 54 54 54 54 54 53 52 50 48 44 41 38 35 34 32 32 31 30 30 29 29 30 32 34 36 37 36 36 36 35 34 32 29 26 23 21 22 26 32 40 50 59 65 68 68 66 64 63 63 64 66 67 68 68 68 66 64 63 63 64
20 22 23 24 26 28 29 30 32 34 36 38 40 42 44 45 46 47 48 49 50 51 52 53 54 55 56 56 56 56 56 56 55 53 51 47 44 40 38 35 34 32 32 31 30 30 30 30 32 34 38 38 38 38 38 37 36 34 31 28 24 22 20 22 27 34 44 53 60 65 66 66 64 63 62 63 64 66 68 69 68 66 64 62 62 62
Wind_Speed
61 62 62 62 62 62 63 63 62 62 63 63 63 63 63 63 62 61 60 59 58 58 58 59 60 61 61 61 60 60 60 60 61 62 63 64 65 66 67 68 69 70 70 70 71 71 71 71 71 72 72 72 72 72 72 73 73 73 73 73 73 74 74 74 74 75 75 75 75 75 75 74 74 74 74 74 74 74 74 74 74 74 74 75 75 75
61 62 62 62 61 62 62 61 62 62 63 64 63 62 61 60 58 57 56 56 56 56 58 59 60 60 60 60 60 61 62 63 64 65 66 67 68 68 69 70 70 71 71 72 72 72 72 72 72 72 73 73 73 73 73 73 73 73 74 74 74 75 75 75 75 75 75 75 75 75 75 75 75 75 75 75 74 75 75 75 75 75 75 75 76 76
61 61 61 61 60 60 60 61 62 63 63 63 61 59 57 56 54 53 53 54 56 57 58 59 60 60 60 61 62 63 64 65 66 67 68 69 70 70 71 71 72 72 73 73 73 73 73 73 74 74 74 74 74 74 74 74 75 75 75 76 76 76 76 76 76 76 76 76 76 76 76 76 76 76 76 76 76 76 76 76 76 76 76 76 77 77
60 60 60 59 59 59 61 63 63 64 63 61 59 57 56 54 54 54 55 56 57 58 59 60 61 61 62 63 64 65 66 67 68 68 69 70 71 72 72 72 73 73 74 74 74 74 74 75 75 75 75 75 76 76 76 76 77 77 78 78 78 78 78 78 79 78 78 78 78 78 78 78 77 77 77 77 77 77 77 77 77 77 77 78 78 78
59 59 58 58 59 61 62 63 64 64 63 61 59 58 57 56 56 57 57 58 59 60 61 61 62 63 64 65 66 67 68 68 69 70 70 71 72 72 73 73 73 74 74 75 75 75 76 76 76 77 77 77 78 78 78 79 79 80 80 80 81 81 81 81 81 81 80 80 80 80 79 79 79 78 78 78 78 78 78 78 78 78 78 79 79 79
58 58 58 60 61 63 64 65 65 64 63 62 61 61 60 60 61 61 61 61 61 61 62 63 63 64 65 66 67 68 69 69 70 70 71 71 72 72 73 74 74 75 75 76 76 77 77 78 78 79 79 80 80 80 81 81 82 82 82 83 83 83 83 83 82 82 82 81 81 80 80 80 79 79 79 79 78 78 78 78 78 78 78 79 79 79
57 59 61 63 64 65 65 65 65 65 64 64 64 65 65 65 65 65 65 64 63 62 63 63 64 65 66 67 68 68 69 69 70 70 71 72 72 73 74 75 75 76 77 78 78 79 80 80 81 81 82 82 82 83 83 83 84 84 84 84 84 84 84 83 83 83 82 82 81 81 80 80 79 79 79 78 78 78 77 77 77 77 77 77 77 78
60 62 64 65 65 65 65 65 66 66 66 66 66 67 67 67 67 67 66 65 64 63 64 64 65 66 67 68 68 69 69 70 70 71 72 73 74 75 76 77 77 78 79 80 81 81 82 82 83 83 84 84 84 84 85 85 85 85 85 85 84 84 84 83 83 82 81 81 80 79 79 78 78 77 77 76 76 76 75 75 75 75 75 75 75 75
63 65 65 65 65 65 65 65 65 66 66 66 66 66 66 66 65 65 65 64 64 64 65 65 66 67 68 68 69 70 71 71 72 73 74 75 76 77 78 79 80 81 81 82 83 83 84 84 84 84 85 85 85 85 85 85 85 85 85 84 84 83 83 82 81 80 80 79 78 77 77 76 75 75 74 73 73 72 72 72 71 71 71 71 70 70
65 65 65 64 64 64 64 64 64 64 64 64 64 63 63 63 63 63 63 64 64 65 66 66 67 68 69 70 71 72 73 74 75 76 77 78 79 80 81 81 82 82 83 83 84 84 84 85 85 85 85 85 85 85 85 85 84 84 83 83 82 81 81 80 79 78 77 76 75 74 73 72 71 71 70 69 68 68 67 67 66 66 66 65 65 65
64 64 64 64 63 63 63 62 62 62 61 61 61 61 61 62 62 62 63 64 65 66 66 67 68 70 71 73 74 75 75 76 77 78 79 80 81 81 82 83 83 83 84 84 84 84 85 85 85 84 84 84 84 84 84 83 83 82 81 81 80 79 78 77 75 74 73 72 71 69 68 67 66 65 64 64 63 62 62 61 61 61 60 60 60 60
64 64 64 64 62 61 60 59 59 59 59 59 60 61 61 62 62 62 63 64 65 66 67 69 70 72 73 74 76 77 77 78 79 79 80 81 81 82 82 83 83 83 84 84 84 84 84 84 84 84 83 83 83 82 82 81 80 79 78 77 76 75 73 72 70 69 68 66 65 63 62 61 60 59 58 57 57 56 56 56 56 56 56 56 56 57
64 64 62 60 58 57 57 57 58 58 59 59 60 60 61 62 62 63 64 65 67 68 69 71 72 74 75 76 77 78 78 79 79 80 80 81 81 82 82 83 83 83 83 83 83 83 83 82 82 82 81 81 80 80 79 78 77 76 74 72 71 69 67 66 64 62 61 59 58 56 55 54 53 52 52 52 51 51 52 52 52 53 53 53 54 54
61 59 57 55 55 56 56 57 57 58 58 59 59 60 61 62 63 64 66 67 68 70 71 72 74 75 76 77 78 78 78 79 79 80 80 81 81 82 82 82 82 82 81 81 81 81 81 80 79 79 79 78 77 76 75 73 72 70 68 66 64 62 60 58 56 54 53 51 50 49 48 48 47 47 47 48 48 49 49 49 50 50 51 51 52 52
55 54 54 54 55 55 56 56 57 57 58 59 60 61 62 63 65 66 68 69 70 71 72 73 74 75 76 77 78 78 79 79 79 79 80 80 81 81 81 80 80 80 80 79 79 78 78 77 75 75 74 73 71 70 68 66 65 62 60 58 56 53 52 50 48 47 46 45 44 44 44 44 44 45 45 46 46 47 47 48 48 49 49 49 50 50
52 52 53 54 54 55 55 56 56 57 59 60 61 62 64 65 67 68 69 70 71 72 73 74 74 75 76 77 78 78 79 79 79 79 78 79 80 80 79 78 77 77 77 75 75 74 73 71 70 68 67 65 64 62 60 58 56 53 51 49 47 45 44 43 42 41 41 41 41 41 42 42 43 44 44 45 45 45 46 46 47 47 47 48 48 48
51 52 52 53 53 54 55 56 57 59 60 62 63 64 66 67 68 69 70 71 72 73 74 74 74 75 76 77 78 79 78 78 78 77 77 76 77 77 76 74 73 72 72 70 69 68 66 64 62 60 58 56 55 53 51 49 47 45 43 41 40 40 39 39 39 39 39 40 40 41 42 42 43 43 43 44 44 44 44 45 45 45 45 46 46 46
50 51 51 52 54 55 56 58 59 61 62 64 65 66 67 68 69 70 71 72 72 73 74 74 75 75 75 76 77 78 77 76 75 74 74 73 73 73 72 69 68 66 65 63 61 59 57 55 53 51 49 47 46 44 42 41 40 39 38 37 37 37 38 38 39 39 40 40 41 41 41 42 42 42 42 42 42 43 43 43 43 43 43 43 44 44
49 51 52 53 55 57 58 60 61 63 64 65 66 67 68 69 70 70 71 72 73 73 74 74 75 75 75 75 75 76 75 73 71 70 70 69 68 68 66 63 60 59 57 54 52 50 48 45 44 42 41 40 39 38 38 37 37 36 37 37 37 38 39 39 40 40 41 41 41 41 41 40 40 40 40 41 40 41 41 41 41 41 41 42 42 43
51 52 53 55 57 58 60 61 63 64 65 66 67 67 68 69 70 71 71 72 73 73 73 73 73 74 73 73 73 72 71 69 67 66 64 63 62 60 58 55 52 50 48 46 43 41 39 38 37 36 36 36 36 36 36 37 37 37 38 38 39 39 40 40 40 40 40 40 39 39 39 39 39 39 39 38 38 38 38 39 39 40 40 41 42 43
53 54 55 57 58 60 61 62 63 65 65 66 67 68 68 69 70 71 71 72 72 72 72 72 71 71 70 69 68 68 66 63 61 59 58 56 54 52 50 46 43 42 40 38 36 34 33 34 34 35 35 36 37 37 38 38 38 39 39 39 40 40 40 39 39 39 38 38 37 37 37 37 37 36 36 36 36 36 37 38 39 39 40 41 42 43
54 56 57 58 60 61 62 63 64 65 66 67 67 68 69 69 70 70 71 70 70 70 69 69 68 68 66 65 63 62 61 57 54 52 50 48 46 45 42 38 36 35 34 33 32 32 32 33 35 36 37 37 38 39 39 39 40 40 40 40 39 39 38 38 37 36 36 36 35 35 35 34 34 34 34 35 35 36 37 38 39 40 41 41 42 42
56 57 58 60 61 62 63 64 65 66 67 67 67 68 68 68 68 69 69 68 67 67 66 65 65 63 62 60 58 57 55 52 49 46 43 41 39 38 36 33 31 31 31 31 31 32 33 35 36 37 38 38 39 40 40 40 40 40 39 39 38 37 37 36 35 34 34 33 33 32 32 32 32 33 34 34 35 36 37 38 39 40 41 41 41 42
57 58 59 61 62 63 64 65 66 66 67 67 67 67 68 68 67 67 66 66 65 64 63 61 60 58 57 54 52 51 49 46 43 40 38 35 34 33 32 30 29 29 30 31 32 33 35 36 37 38 38 39 40 40 40 40 40 39 39 38 37 36 35 34 33 32 32 31 30 30 30 31 32 33 34 35 36 37 38 38 39 40 40 40 40 40
58 59 60 62 63 63 64 65 66 66 66 66 66 66 66 66 65 65 64 63 61 60 58 56 55 53 51 49 47 46 44 41 38 36 33 32 31 31 30 29 29 30 31 32 33 34 36 37 38 39 39 40 40 40 40 40 40 39 38 37 36 35 34 33 31 30 29 29 28 29 29 30 31 33 34 35 36 36 37 38 39 39 40 40 40 39
59 60 61 62 63 64 64 65 65 65 65 65 65 64 64 63 62 61 60 58 57 55 53 52 50 48 47 45 43 41 40 38 35 33 31 30 30 31 31 30 30 31 32 34 35 36 37 38 38 39 40 40 41 41 41 40 40 39 38 36 35 34 32 31 30 29 28 28 28 28 29 30 31 32 33 34 35 35 36 37 38 38 39 39 39 39
60 61 62 62 63 63 64 64 64 64 64 63 63 62 61 60 59 57 55 54 52 50 48 47 46 45 43 41 40 38 37 36 34 32 31 30 31 32 32 32 32 32 33 34 35 36 37 38 39 40 40 41 41 41 41 41 40 39 37 36 35 33 32 30 29 28 27 28 28 29 30 31 31 32 33 33 34 34 35 36 37 37 38 38 38 38
60 61 61 62 62 62 63 63 62 62 62 61 60 59 58 56 54 53 51 50 48 46 45 43 42 41 40 39 38 37 36 35 34 32 32 32 32 33 33 33 33 34 34 35 36 37 38 39 39 40 40 41 41 42 41 41 40 39 38 36 34 33 31 30 29 28 28 28 29 30 30 31 31 32 32 33 33 34 35 35 36 37 37 37 38 38
60 60 61 61 61 61 61 61 61 60 59 58 57 55 54 52 50 49 48 47 45 44 43 42 40 39 39 38 38 38 37 36 35 34 34 34 34 34 35 35 35 35 35 35 35 36 37 38 39 40 40 41 41 42 42 41 40 39 38 36 35 33 32 30 29 29 29 29 30 30 31 31 32 32 33 33 34 34 35 36 36 37 37 37 38 38
59 60 60 60 60 60 60 59 58 57 56 55 53 51 50 48 47 46 45 44 43 42 41 40 40 39 38 38 38 38 38 37 36 36 35 35 35 36 36 36 36 36 36 35 35 36 36 37 38 39 40 40 41 41 41 41 40 39 38 37 35 34 32 31 30 30 30 31 31 31 32 32 32 33 33 34 35 35 36 36 37 37 37 37 38 38
58 59 59 59 59 58 58 57 55 54 53 51 50 48 47 46 45 44 43 42 41 41 40 40 40 39 39 39 39 39 39 39 38 37 36 36 37 37 37 37 37 37 37 36 36 35 35 36 36 37 38 39 40 41 41 41 40 39 38 37 36 35 34 33 32 32 32 32 32 33 33 33 33 34 34 35 35 36 37 37 37 37 38 38 38 38
57 57 57 57 57 56 55 54 52 51 50 48 47 46 45 44 43 42 42 41 41 40 40 40 40 40 40 39 39 40 40 40 39 38 38 38 38 38 38 38 38 38 38 37 37 36 35 34 35 36 37 38 38 39 40 40 40 39 39 38 37 36 35 34 34 33 33 33 33 34 34 34 34 35 35 35 36 36 37 37 37 38 38 38 38 38
56 56 56 55 55 54 52 51 50 48 47 46 45 44 43 43 42 42 41 41 41 40 40 40 40 40 40 40 40 41 41 41 40 40 39 39 39 39 39 39 39 39 38 38 37 36 35 34 34 34 35 36 37 38 38 39 39 39 38 38 37 36 36 35 35 35 34 34 34 35 35 35 35 35 36 36 36 36 37 37 37 38 38 38 38 37
55 55 54 54 53 51 50 49 47 46 45 44 43 42 42 41 41 41 41 41 41 41 40 40 40 41 41 41 41 41 41 41 41 41 40 40 40 40 40 40 39 39 38 37 36 35 34 34 33 33 34 34 35 36 37 37 37 37 37 37 37 36 36 36 35 35 35 35 35 35 35 35 35 35 35 36 36 36 37 37 38 38 38 38 38 38
55 54 53 52 51 50 48 47 46 45 44 43 42 41 41 41 41 41 41 41 41 41 41 41 41 41 41 41 41 41 42 42 42 41 41 40 40 40 40 39 39 38 37 36 35 34 33 33 32 33 33 33 34 35 35 35 36 36 36 36 36 36 36 35 35 35 35 35 35 35 35 35 35 35 35 35 36 36 37 38 38 39 39 38 38 37
54 53 52 51 49 48 47 45 44 43 42 42 41 41 40 40 40 41 41 41 41 41 41 41 41 40 41 40 41 41 41 41 41 41 41 40 40 39 39 38 38 37 36 35 34 33 32 32 32 32 32 32 33 33 34 34 34 35 35 35 35 35 35 35 34 34 34 34 34 34 34 34 34 34 34 35 36 36 37 38 38 39 38 38 37 37
53 52 51 49 48 47 45 44 43 42 41 41 40 40 40 40 40 40 40 40 40 40 40 40 40 40 40 40 40 40 41 41 41 40 40 40 39 38 38 37 37 36 35 34 33 32 31 31 31 31 32 32 32 32 32 33 33 33 33 33 34 34 34 34 33 33 33 33 33 33 33 33 33 33 34 35 35 36 37 37 38 38 37 37 36 35
52 51 49 48 46 45 44 42 41 41 40 40 40 39 39 39 39 39 39 39 39 39 39 39 39 40 40 40 40 40 40 40 40 40 40 39 38 38 37 36 35 35 34 33 32 31 30 30 30 30 31 31 32 32 32 32 32 32 32 32 32 32 33 32 32 32 32 32 32 31 32 32 32 32 33 34 35 36 36 36 36 36 36 35 34 33
51 49 48 46 45 43 42 41 40 40 39 39 39 39 38 39 38 38 38 38 38 38 38 38 39 39 39 40 40 40 40 40 40 40 39 39 38 37 36 35 35 34 33 32 31 31 30 30 30 30 31 31 31 31 32 32 31 31 30 30 30 31 31 31 31 31 31 31 31 31 31 31 31 32 33 34 34 35 35 35 35 34 34 33 32 31
49 48 46 44 43 42 40 40 39 38 38 38 38 38 38 37 37 37 37 37 37 37 38 38 38 38 39 39 39 39 39 39 39 39 39 38 38 37 36 35 34 33 32 31 31 30 30 30 30 30 31 31 31 31 31 31 31 31 30 29 29 29 30 30 31 31 30 30 30 30 30 30 31 32 32 33 33 34 33 33 33 32 32 31 30 29
48 46 44 43 42 40 39 38 38 37 37 37 37 36 36 36 36 36 36 36 36 37 37 37 38 38 38 39 39 39 39 39 39 39 39 38 38 37 36 35 34 33 32 31 31 30 30 30 30 31 31 31 31 31 31 31 31 31 30 29 28 28 29 29 30 30 30 30 30 30 30 30 30 31 32 32 33 32 32 32 31 30 30 29 28 27
46 44 43 41 40 39 38 37 36 36 36 36 35 35 35 35 35 35 35 36 36 36 36 36 37 37 38 38 39 39 39 39 39 39 39 38 38 37 36 35 34 33 32 32 31 30 30 30 31 31 31 31 32 31 31 31 31 31 30 29 28 28 28 28 29 29 30 30 30 30 30 30 30 31 31 31 31 31 31 31 30 29 28 28 27 27
45 43 41 40 39 38 37 36 35 35 35 35 34 34 34 34 34 35 35 35 35 36 36 36 37 37 38 38 38 39 39 39 39 39 38 38 38 37 36 35 34 33 33 32 31 31 30 30 31 31 31 32 32 32 31 31 31 31 30 30 29 28 27 27 28 29 29 30 30 30 30 30 30 30 30 31 31 31 30 30 29 28 28 27 27 27
43 42 40 39 38 36 35 35 34 34 34 34 34 34 34 34 34 34 34 35 35 36 36 36 37 37 37 38 38 38 39 39 39 39 39 38 38 37 36 35 34 33 33 32 31 31 30 30 31 31 32 32 32 32 32 32 31 31 31 30 29 29 28 27 27 28 29 29 30 30 30 29 29 29 29 30 30 30 30 29 29 28 28 28 28 28
42 41 39 38 36 35 34 34 33 33 33 33 33 33 34 34 34 34 35 35 36 36 36 37 37 37 38 38 38 38 39 39 39 39 39 38 38 37 36 35 34 34 33 32 31 31 31 30 31 31 31 32 32 32 32 32 32 31 31 30 30 29 29 28 28 28 28 29 29 29 29 29 29 28 29 29 29 29 29 29 28 28 28 28 28 28
41 39 38 37 35 34 34 33 33 33 33 33 33 33 34 34 34 35 35 35 36 36 37 37 37 38 38 38 38 38 38 39 39 39 39 38 38 37 36 36 35 34 33 32 31 31 31 31 31 31 31 32 32 32 32 32 32 32 31 31 30 29 29 29 29 29 29 29 29 29 29 29 28 28 28 28 29 29 29 29 28 28 28 28 28 28
40 38 37 36 35 34 33 33 33 32 33 33 33 33 34 34 35 35 36 36 36 37 37 38 38 38 38 38 38 38 38 39 39 39 39 39 38 37 37 36 35 34 33 32 32 31 31 30 31 31 31 32 32 32 32 33 33 32 32 31 30 30 29 29 29 29 29 29 29 29 29 28 28 28 28 28 29 29 29 29 29 28 28 28 28 28
39 37 36 35 34 34 33 33 32 32 33 33 33 34 34 35 35 36 36 37 37 37 38 38 38 38 39 39 39 39 39 39 39 39 39 39 38 38 37 36 35 34 33 32 32 31 30 30 31 31 32 32 32 32 32 32 33 33 32 32 31 30 29 29 29 29 30 30 30 29 29 29 28 28 28 28 28 29 29 29 29 29 28 28 28 27
38 37 36 35 34 33 33 33 33 33 33 33 34 34 35 35 36 36 37 37 38 38 38 38 39 39 39 39 39 39 39 39 39 39 39 39 38 38 37 37 36 35 34 33 32 31 30 30 30 31 32 33 33 32 32 32 33 33 33 32 31 30 29 29 29 29 29 30 30 30 29 29 29 28 28 28 28 29 29 30 30 29 29 28 28 27
37 36 35 34 34 33 33 33 33 33 33 34 34 35 35 36 36 37 37 38 38 39 39 39 39 39 39 39 40 40 39 39 39 39 39 39 39 38 38 37 36 35 34 33 32 31 30 30 30 30 32 33 33 33 33 33 33 33 32 32 31 31 30 29 29 29 29 29 30 30 30 29 29 29 28 28 28 28 29 29 30 30 30 29 28 28
37 36 35 34 34 33 33 33 33 34 34 34 35 35 36 37 37 38 38 38 39 39 40 40 40 40 40 40 40 40 40 40 40 39 39 39 39 39 38 37 37 36 35 33 32 31 30 29 29 29 30 32 33 33 33 33 33 33 32 32 31 31 30 29 29 28 28 29 29 30 30 30 30 29 29 28 28 28 28 29 30 30 30 30 29 28
Wind_Direction
282 283 283 283 283 281 281 282 284 287 289 290 291 291 292 292 292 291 291 290 291 291 292 292 291 289 287 286 284 283 283 284 284 285 285 286 286 287 287 288 288 288 289 288 288 288 288 287 287 286 286 285 285 284 284 284 284 284 284 284 284 284 284 284 283 283 283 282 282 282 282 282 282 281 281 281 280 280 279 279 279 278 278 277 277 276
283 283 283 282 280 280 282 284 286 289 290 291 292 293 293 293 292 292 291 292 292 293 292 291 290 288 286 285 284 284 285 285 286 287 287 288 288 288 289 289 289 289 289 289 289 288 288 288 287 287 286 286 286 286 286 286 286 285 285 285 285 285 284 284 284 283 283 283 283 282 282 282 282 281 281 281 280 280 279 279 278 278 277 277 276 276
282 281 280 279 279 281 284 286 288 290 292 293 294 295 295 294 294 293 293 293 293 292 291 290 288 287 286 285 285 286 286 287 287 288 288 289 289 289 289 290 290 290 289 289 289 289 288 288 288 288 287 287 287 287 287 287 287 286 286 286 285 285 285 284 284 284 283 283 283 283 282 282 282 281 281 280 280 279 279 278 278 277 277 276 276 275
281 279 278 279 281 283 285 287 290 292 294 295 296 296 296 296 295 294 293 293 292 291 289 288 287 287 287 287 287 287 288 288 288 289 289 289 289 290 290 290 290 290 289 289 289 289 288 288 288 288 288 288 288 288 287 287 287 286 286 286 285 285 285 284 284 284 284 283 283 283 282 282 281 281 281 280 280 279 279 278 278 277 276 276 275 275
279 278 279 281 283 285 287 290 292 294 295 296 296 296 296 295 294 293 292 291 290 289 288 287 287 287 288 288 288 288 289 289 289 289 289 290 290 290 290 290 289 289 289 289 289 289 289 288 288 288 288 288 288 287 287 287 286 286 286 285 285 285 285 284 284 284 284 283 283 282 282 282 281 281 280 280 279 279 278 278 277 277 276 275 275 274
278 280 282 284 287 289 291 292 294 295 296 296 295 295 294 293 292 292 291 290 289 288 288 288 288 288 289 289 289 289 289 290 290 290 290 290 290 290 289 289 289 289 289 289 289 289 289 289 289 288 288 288 288 287 287 287 286 286 286 286 285 285 285 285 284 284 284 283 283 282 282 282 281 281 280 280 279 278 278 277 276 276 275 274 274 273
280 283 285 287 289 291 293 294 295 295 295 294 293 293 292 291 290 290 290 290 289 289 289 290 290 290 290 290 290 290 290 290 290 290 290 290 290 290 289 289 289 289 289 289 289 289 289 289 289 289 288 288 288 287 287 287 286 286 286 286 286 285 285 285 284 284 284 283 283 283 282 281 281 280 280 279 278 278 277 276 275 275 274 273 273 272
284 286 288 290 291 292 293 293 294 293 293 292 291 291 290 289 289 289 290 290 291 291 291 292 292 291 291 291 291 291 291 291 291 291 290 290 290 290 290 290 290 290 290 290 290 290 290 289 289 289 289 288 288 288 287 287 287 287 286 286 286 285 285 285 285 284 284 283 283 282 282 281 280 280 279 278 277 277 276 275 274 274 273 273 272 271
286 288 289 290 291 291 292 291 291 291 290 290 289 289 289 289 289 289 290 291 292 293 293 293 293 292 292 292 292 292 292 291 291 291 291 291 291 291 291 291 291 291 291 291 291 290 290 290 290 289 289 289 288 288 288 287 287 287 286 286 286 286 285 285 285 284 284 283 282 282 281 280 279 279 278 277 276 276 275 274 273 273 272 272 271 271
285 286 287 288 288 289 290 290 289 289 288 288 288 288 288 289 290 291 292 292 293 293 293 293 293 293 292 292 292 292 292 292 292 292 292 292 292 292 292 292 292 292 292 292 291 291 291 290 290 289 289 289 288 288 288 287 287 287 287 286 286 286 285 285 284 284 283 282 282 281 280 279 279 278 277 276 276 275 274 273 273 272 272 271 271 271
283 285 286 287 287 288 288 288 288 288 287 288 288 289 290 291 292 293 293 293 293 293 293 293 293 293 293 293 292 292 292 292 293 293 293 293 293 293 293 293 293 293 292 292 292 291 291 290 290 290 289 289 288 288 288 288 287 287 287 286 286 286 285 285 284 283 283 282 281 280 280 279 278 277 277 276 275 274 273 273 272 272 271 271 270 270
284 285 286 286 286 286 287 287 287 287 288 290 291 292 292 293 293 294 294 293 293 293 293 293 293 293 293 293 293 293 293 293 293 294 294 294 294 294 294 294 293 293 293 292 292 291 291 290 290 290 289 289 288 288 288 287 287 287 286 286 286 285 285 284 284 283 282 281 281 280 279 278 278 277 276 275 274 274 273 272 272 271 271 270 270 270
285 285 285 284 285 286 287 288 289 290 291 292 293 294 294 294 294 294 293 293 293 293 293 293 293 293 293 293 293 293 294 294 295 295 295 295 295 294 294 294 294 293 293 292 292 291 291 290 290 290 289 288 288 288 287 287 287 287 286 286 286 285 284 284 283 283 282 281 280 280 279 278 277 276 275 274 274 273 272 272 272 271 271 271 271 271
283 283 283 285 286 288 290 291 292 293 294 294 294 294 294 294 294 294 294 294 294 294 294 294 294 294 294 294 295 295 295 296 296 296 296 296 295 295 294 294 294 293 293 292 292 291 291 290 290 289 289 288 288 288 287 287 287 287 286 286 286 285 285 284 283 283 282 281 280 279 278 277 276 276 275 274 274 274 273 273 273 272 272 272 272 272
283 285 287 289 291 292 293 294 294 295 295 294 294 294 294 294 294 294 294 294 294 295 295 295 295 295 296 296 296 297 297 297 297 297 297 296 295 295 294 294 294 293 293 292 291 291 290 290 289 289 288 288 288 288 288 287 287 287 287 287 286 286 285 284 284 283 282 281 280 279 278 277 277 276 276 276 275 275 275 274 274 274 274 273 273 273
287 289 291 293 294 294 295 295 295 295 295 295 294 295 295 295 295 296 296 296 296 296 296 297 297 297 298 298 298 298 298 298 298 297 297 296 295 295 294 294 294 293 292 292 291 290 290 290 289 289 289 288 288 288 288 288 288 288 288 288 287 287 286 285 284 283 282 281 281 280 279 279 279 278 278 277 277 276 276 276 275 275 275 274 274 274
292 293 294 295 295 295 295 295 295 295 295 295 296 296 297 297 297 297 298 298 298 298 298 299 299 299 299 299 299 298 298 298 298 297 297 296 295 295 294 294 293 293 292 291 291 290 290 290 290 289 289 289 289 289 290 290 290 290 290 289 289 288 287 286 285 285 284 283 283 282 282 281 281 280 279 279 278 278 277 277 276 276 275 275 275 275
294 295 295 295 296 296 296 296 296 296 297 297 298 298 299 299 299 299 300 300 300 300 300 300 300 300 299 299 299 299 298 298 298 297 297 296 295 295 294 294 293 293 292 292 291 291 291 290 290 290 290 291 291 291 292 292 292 292 292 291 290 289 289 288 287 287 286 286 285 284 284 283 282 281 280 279 279 278 278 277 277 276 276 276 276 276
295 295 296 296 297 297 297 298 298 298 299 299 300 300 301 301 301 301 301 301 301 301 301 301 300 300 300 299 299 299 299 299 298 298 297 296 295 295 294 294 294 293 292 292 292 292 292 292 292 292 292 293 294 294 295 295 295 294 294 293 292 291 291 290 289 289 288 287 286 285 284 283 282 281 280 280 279 278 278 278 277 277 277 277 278 278
296 297 297 298 298 298 299 299 300 300 301 301 302 302 302 302 302 302 302 302 302 301 301 301 300 300 300 299 299 299 299 299 299 298 297 296 296 295 295 295 294 294 293 293 293 293 293 294 294 295 296 296 297 297 298 297 297 296 295 295 294 293 292 291 290 289 288 287 286 285 284 283 282 281 281 280 279 279 279 279 279 279 279 279 279 279
298 299 299 299 300 300 300 301 302 302 303 303 303 303 303 303 303 303 302 302 302 301 301 301 300 300 300 300 300 300 300 299 299 298 298 297 296 296 295 296 295 295 295 294 295 296 297 297 298 298 299 299 300 300 300 299 299 298 297 296 295 293 292 291 290 289 287 286 285 284 283 283 282 281 281 281 280 280 280 280 280 280 280 280 280 280
300 300 300 301 301 302 302 303 303 304 304 304 304 304 304 303 303 303 302 302 302 302 301 301 301 301 301 301 300 300 300 300 300 299 299 298 297 296 297 297 297 296 296 297 298 299 300 300 300 301 301 301 301 301 301 300 299 298 297 296 295 294 292 291 289 288 287 285 285 284 283 283 282 282 282 282 282 282 282 282 282 282 282 281 281 281
302 302 302 303 303 304 304 305 305 305 305 305 304 304 303 303 303 303 303 303 303 302 302 302 302 302 302 302 301 301 301 301 301 301 300 299 298 297 298 299 299 299 298 299 301 302 302 302 301 301 302 302 302 302 301 301 300 299 298 297 296 294 292 291 289 287 286 285 285 284 284 284 284 284 284 285 285 284 284 284 283 283 282 282 282 281
303 304 304 305 305 305 305 305 305 305 305 304 304 304 304 303 303 303 303 303 303 303 303 303 303 303 303 303 303 302 302 302 302 302 302 300 299 298 299 300 301 301 300 301 301 302 302 301 301 302 302 302 302 302 302 302 301 300 299 298 296 294 292 290 289 287 286 285 285 285 285 285 286 286 286 286 286 286 285 285 284 283 283 282 282 282
305 305 305 305 305 305 305 305 305 305 305 304 304 304 304 304 304 304 304 304 304 304 304 304 304 304 303 304 304 303 303 303 303 303 303 301 300 300 300 301 301 301 300 301 301 301 301 301 301 302 303 303 303 304 304 303 303 302 300 299 297 295 293 291 289 288 287 286 286 286 286 287 287 287 287 287 287 286 286 285 285 284 284 283 283 282
305 305 305 305 305 305 305 305 305 305 305 305 305 305 305 305 305 305 305 305 305 305 305 305 304 304 304 304 304 304 304 304 304 304 303 302 301 300 300 301 300 300 300 300 301 301 301 301 302 303 304 304 305 305 305 304 304 303 301 299 297 295 293 291 290 289 288 287 288 288 288 288 288 288 288 288 288 287 287 286 286 285 285 284 284 283
305 305 305 305 305 306 306 306 306 306 306 306 306 305 305 305 305 305 305 305 305 305 305 305 305 305 305 305 304 304 304 304 304 304 303 301 300 299 300 300 300 299 299 300 301 301 302 302 303 304 305 305 306 306 306 306 305 304 302 300 298 296 293 292 290 289 289 289 289 290 290 290 290 290 289 289 288 288 287 286 286 285 285 285 284 284
305 305 306 306 306 306 306 306 306 306 306 306 306 305 305 305 306 306 305 305 306 306 305 305 305 305 305 305 304 304 304 304 304 303 302 301 300 299 299 299 299 299 299 300 301 302 302 303 303 304 305 306 306 306 307 306 306 304 302 300 298 296 294 292 291 291 291 291 291 291 291 291 291 291 291 290 289 288 287 286 285 285 285 285 285 285
306 306 307 307 307 307 307 307 307 306 306 306 306 305 306 306 306 306 306 306 306 306 306 306 305 305 305 304 304 304 303 303 303 303 302 301 300 299 299 299 299 299 299 300 301 302 302 303 304 305 305 306 307 307 307 306 306 304 303 301 298 296 294 293 292 292 292 292 292 292 292 292 292 292 291 290 289 288 287 286 286 285 285 285 285 286
307 307 307 308 307 307 307 307 307 306 306 306 306 306 306 307 307 307 307 307 307 307 306 306 305 305 304 304 303 303 303 302 302 302 302 301 300 300 300 299 299 299 299 299 300 300 302 302 304 304 305 306 306 306 306 306 305 304 302 300 298 296 295 294 293 292 292 292 292 293 293 293 293 292 291 290 289 288 287 287 287 287 287 287 287 287
308 308 308 308 308 308 307 307 307 307 306 307 307 307 308 308 308 308 307 307 307 306 305 305 304 304 303 303 303 303 302 302 302 302 302 301 300 300 300 299 299 298 298 298 299 299 300 301 302 303 304 305 305 305 305 305 304 303 301 300 298 296 295 294 293 293 293 293 293 293 294 294 293 293 292 291 290 289 289 288 288 288 288 288 289 289
308 308 308 308 308 308 308 307 307 307 307 308 308 308 309 309 308 308 307 307 306 305 305 304 304 304 303 303 303 303 303 303 302 302 302 301 300 299 299 299 298 298 298 298 298 298 299 300 301 302 303 303 304 304 303 303 302 301 300 298 297 296 295 294 293 293 293 294 294 294 295 294 294 293 292 292 291 290 290 290 290 290 290 290 291 291
309 309 309 309 309 308 308 308 308 308 308 309 309 309 309 308 308 307 306 306 305 304 304 304 304 304 304 304 304 303 303 303 303 303 302 301 300 299 299 298 298 298 298 298 298 298 298 299 300 301 301 302 302 302 302 301 300 299 298 297 296 295 294 294 293 293 294 294 295 295 295 295 295 294 293 293 293 293 293 293 293 293 293 293 293 293
309 309 309 309 309 309 309 309 309 309 309 309 309 308 308 308 307 306 306 305 305 305 305 305 305 305 305 305 305 304 304 304 303 303 302 302 301 300 299 298 298 297 297 297 297 297 297 298 298 300 300 301 301 301 300 300 299 298 297 296 295 294 293 293 293 293 294 295 295 296 296 296 296 295 295 295 295 295 295 295 295 295 296 296 296 295
310 310 310 310 310 309 309 309 309 309 308 308 308 308 307 307 306 306 306 306 306 306 306 306 306 306 306 306 306 305 305 304 304 304 303 302 302 301 300 299 298 297 297 296 296 296 296 297 298 299 300 300 301 300 300 299 298 297 296 295 294 293 293 292 293 293 294 295 296 296 296 296 296 296 297 297 297 297 297 297 297 298 298 299 298 298
311 311 310 310 310 309 309 309 309 308 308 308 308 307 307 307 307 306 306 307 307 307 307 307 307 307 307 307 306 306 306 306 305 305 304 304 303 302 301 300 299 298 297 296 295 295 295 296 297 298 300 301 301 301 300 299 299 297 296 295 294 293 293 293 293 294 294 295 295 296 296 296 297 297 297 298 298 298 298 299 299 300 300 300 300 300
311 311 310 310 309 309 309 308 308 308 308 308 307 307 307 307 307 307 307 308 308 308 308 308 308 308 307 307 307 307 307 306 306 306 306 305 304 303 303 301 300 299 298 297 296 295 295 295 297 298 300 301 301 301 301 300 299 298 297 296 295 294 294 294 294 294 295 295 295 296 296 296 297 297 298 298 298 299 299 300 300 301 301 302 302 301
311 310 310 309 309 309 308 308 308 308 308 308 307 308 308 308 308 308 308 308 309 309 309 309 309 309 308 308 308 308 308 307 307 307 306 306 305 305 304 303 302 300 299 298 296 296 295 296 297 299 300 301 302 303 303 302 301 300 299 298 297 296 296 295 295 295 295 296 296 296 296 297 297 298 298 298 298 299 299 300 301 301 302 302 303 303
310 310 309 308 308 308 308 307 307 307 308 308 308 308 308 308 308 309 309 309 309 309 310 310 310 310 310 310 309 309 309 308 308 308 307 307 307 306 305 305 303 302 300 299 297 297 296 297 298 300 301 302 304 304 304 304 303 302 301 300 300 299 298 297 297 296 296 296 296 296 296 297 297 298 298 298 299 299 300 300 301 302 302 303 304 304
309 309 308 307 307 307 307 307 307 307 308 308 308 308 308 309 309 309 310 310 310 311 311 311 312 312 311 311 311 310 310 309 309 309 309 308 308 308 307 306 305 303 302 300 299 298 298 298 299 301 302 304 305 306 307 306 306 305 304 303 302 301 300 299 298 297 297 296 296 297 297 298 298 298 299 299 299 299 300 300 301 301 303 304 305 306
308 307 307 306 306 306 307 307 307 308 308 308 308 309 309 309 310 310 311 311 312 313 313 314 314 314 313 313 313 312 312 311 311 310 310 310 309 309 308 307 306 304 303 301 300 299 299 300 301 302 303 305 306 308 308 309 308 308 306 306 305 304 302 301 299 298 298 297 297 297 298 298 299 299 299 299 300 300 300 300 301 302 303 304 306 307
307 306 306 305 306 306 306 307 307 308 308 308 309 309 309 310 311 311 312 313 314 315 315 316 316 316 316 315 315 314 314 313 313 312 311 311 310 310 309 308 307 305 304 302 301 300 300 301 302 303 304 306 307 309 310 310 310 310 309 308 307 305 303 302 300 299 298 297 297 297 298 299 299 300 300 300 300 300 300 300 301 302 303 304 306 307
305 305 304 304 305 305 306 306 307 307 308 308 309 309 310 311 312 313 314 315 316 316 317 317 317 317 317 317 317 316 316 315 314 313 312 312 311 310 309 308 307 306 304 303 302 301 301 301 302 303 305 306 308 309 310 311 312 312 311 310 309 307 305 303 300 298 298 297 297 297 298 299 300 301 301 301 301 301 301 301 301 302 303 305 306 308
304 303 303 303 304 304 305 306 306 307 308 308 309 310 311 312 313 314 315 316 316 317 317 318 318 318 318 318 318 317 317 316 315 314 313 312 311 310 309 308 307 306 304 303 302 302 301 301 302 303 305 306 308 309 310 312 312 313 313 312 311 309 307 304 301 299 298 297 297 298 298 300 301 302 303 303 302 302 301 301 302 303 304 306 307 308
302 302 302 302 303 303 304 305 306 306 307 308 309 310 311 312 313 314 315 316 316 316 317 317 317 318 318 318 318 318 317 317 316 315 314 313 312 310 310 308 307 306 305 304 303 302 302 302 302 303 304 306 307 309 311 312 313 314 314 314 313 311 309 306 303 300 298 297 297 298 299 301 303 304 304 304 303 302 302 302 302 303 304 305 306 307
301 300 300 301 301 302 303 304 305 306 307 308 309 310 312 313 314 314 315 315 316 316 316 316 317 317 317 317 317 317 317 317 316 315 314 313 312 311 310 309 308 307 305 304 303 302 302 302 303 303 304 305 307 309 311 312 313 314 315 315 314 313 310 308 304 302 300 298 298 299 300 302 304 305 305 305 304 303 302 301 301 302 303 304 305 306
299 299 299 299 300 301 302 303 304 305 307 308 309 310 312 313 313 314 314 315 315 315 316 316 316 316 316 316 317 317 317 317 316 316 315 314 313 312 310 309 308 307 306 305 304 303 302 302 303 303 304 305 307 308 310 312 313 314 315 316 315 314 312 309 306 303 301 300 299 300 301 303 305 306 306 305 304 303 302 301 301 301 302 303 304 305
297 297 297 298 299 300 301 302 303 305 306 308 309 310 311 312 313 314 314 315 315 315 315 315 316 315 315 315 316 316 316 316 316 316 315 314 313 312 311 310 308 307 306 305 304 303 303 303 304 304 305 305 307 308 310 312 313 314 315 316 316 315 313 310 307 304 302 301 301 301 302 304 305 306 307 306 305 304 302 302 301 301 301 302 303 304
296 295 296 297 298 299 300 301 303 304 306 307 308 309 310 312 312 313 314 315 315 315 315 315 315 315 315 315 315 315 315 316 316 316 315 314 314 313 311 310 309 308 306 305 304 303 303 303 304 305 305 306 306 308 310 311 312 313 314 315 315 315 313 310 307 305 303 301 301 302 303 304 306 306 307 306 305 304 303 302 302 301 301 301 302 303
294 294 295 296 297 298 299 301 302 304 305 306 307 309 310 311 312 313 314 314 315 315 315 315 315 315 315 315 315 315 315 315 315 315 315 314 314 313 312 311 309 308 306 305 304 303 303 303 304 305 305 305 306 307 308 309 310 311 313 314 315 314 313 311 309 306 304 302 302 302 303 304 305 306 306 306 305 304 303 302 302 301 301 301 302 303
293 293 294 295 296 297 299 300 301 303 304 305 306 308 309 310 311 312 313 314 315 315 315 315 315 315 314 314 314 314 314 314 314 315 314 314 313 313 312 311 310 308 307 305 304 303 302 302 303 304 305 304 305 306 308 308 309 310 311 313 314 314 314 312 310 307 305 303 302 302 303 304 305 305 306 306 305 304 303 303 302 302 302 302 303 304